VR2HK-13 Weather Reports


Display with metric or nautical units.
time (UTC)temp
F
wind
direction
speed
MPH
gust
MPH
rain 1hr
in
rain 24hr
in
rain mn
in
humidity
%
barometer
mb
20260904011013 82 225 10.0 14.0 0.00 0.00 0.00 72 1004.0
20260904010814 82 209 10.0 16.0 0.00 0.00 0.00 71 1004.0
20260904010513 82 165 11.0 16.0 0.00 0.00 0.00 71 1004.0
20260904010304 82 137 9.0 14.0 0.00 0.00 0.00 71 1004.0
20260904010013 82 184 10.0 14.0 0.00 0.00 0.00 71 1003.9
20260904005754 82 180 10.0 16.0 0.00 0.00 0.00 71 1003.9
20260904005513 82 179 10.0 16.0 0.00 0.00 0.00 71 1003.9
20260904005245 82 157 10.0 13.0 0.00 0.00 0.00 71 1003.9
20260904005013 82 134 8.0 11.0 0.00 0.00 0.00 71 1003.9
20260904004734 82 230 6.0 13.0 0.00 0.00 0.00 71 1003.8
20260904004513 82 206 7.0 16.0 0.00 0.00 0.00 72 1003.8
20260904004224 82 166 7.0 16.0 0.00 0.00 0.00 72 1003.8
20260904004013 82 193 9.0 12.0 0.00 0.00 0.00 71 1003.7
20260904003715 82 174 7.0 10.0 0.00 0.00 0.00 71 1003.7
20260904003513 82 210 7.0 11.0 0.00 0.00 0.00 71 1003.7
20260904003204 82 192 8.0 11.0 0.00 0.00 0.00 71 1003.6
20260904003013 82 192 7.0 12.0 0.00 0.00 0.00 71 1003.6
20260904002654 82 148 9.0 12.0 0.00 0.00 0.00 71 1003.6
20260904002513 82 155 8.0 12.0 0.00 0.00 0.00 71 1003.6
20260904002144 82 161 8.0 15.0 0.00 0.00 0.00 71 1003.5
20260904002013 82 193 11.0 15.0 0.00 0.00 0.00 71 1003.5
20260904001634 82 219 7.0 11.0 0.00 0.00 0.00 72 1003.5
20260904001512 82 214 8.0 11.0 0.00 0.00 0.00 71 1003.5
20260904001124 82 241 8.0 12.0 0.00 0.00 0.00 72 1003.5
20260904001013 82 227 8.0 13.0 0.00 0.00 0.00 72 1003.4
20260904000614 82 143 10.0 13.0 0.00 0.00 0.00 72 1003.4
20260904000513 82 149 9.0 13.0 0.00 0.00 0.00 72 1003.4
20260904000104 82 148 10.0 13.0 0.00 0.00 0.00 72 1003.4
20260904000012 82 171 8.0 13.0 0.00 0.00 0.00 72 1003.4
20260903235554 82 200 6.0 11.0 0.00 0.00 0.00 72 1003.3
20260903235513 82 240 7.0 11.0 0.00 0.00 0.00 72 1003.3
20260903235044 81 186 6.0 10.0 0.00 0.00 0.00 73 1003.3
20260903235013 81 173 6.0 10.0 0.00 0.00 0.00 73 1003.3
20260903234534 81 249 8.0 14.0 0.00 0.00 0.00 73 1003.3
20260903234513 81 206 8.0 14.0 0.00 0.00 0.00 73 1003.3
20260903234024 81 217 8.0 13.0 0.00 0.00 0.00 74 1003.2
20260903234012 81 205 8.0 13.0 0.00 0.00 0.00 74 1003.2
20260903233515 81 224 6.0 12.0 0.00 0.00 0.00 74 1003.1
20260903233513 81 240 6.0 11.0 0.00 0.00 0.00 74 1003.1
20260903233012 80 247 7.0 13.0 0.00 0.00 0.00 74 1003.1
20260903233004 80 181 7.0 13.0 0.00 0.00 0.00 74 1003.1
20260903232512 80 222 9.0 13.0 0.00 0.00 0.00 74 1003.1
20260903232012 80 184 11.0 15.0 0.00 0.00 0.00 74 1003.0
20260903231944 80 164 10.0 15.0 0.00 0.00 0.00 74 1003.0
20260903231512 80 178 9.0 12.0 0.00 0.00 0.00 73 1003.0
20260903231434 80 153 8.0 12.0 0.00 0.00 0.00 73 1003.0
20260903231012 80 187 6.0 11.0 0.00 0.00 0.00 74 1002.9
20260903230923 80 206 7.0 13.0 0.00 0.00 0.00 74 1003.0
20260903230512 80 192 9.0 13.0 0.00 0.00 0.00 74 1002.9
20260903230414 80 167 7.0 10.0 0.00 0.00 0.00 74 1002.9
20260903230013 80 177 5.0 11.0 0.00 0.00 0.00 74 1002.8
20260903225905 80 240 4.0 11.0 0.00 0.00 0.00 75 1002.7
20260903225512 80 230 6.0 12.0 0.00 0.00 0.00 75 1002.6
20260903225353 80 180 7.0 12.0 0.00 0.00 0.00 75 1002.6
20260903225012 80 233 8.0 10.0 0.00 0.00 0.00 75 1002.5
20260903224843 80 219 4.0 9.0 0.00 0.00 0.00 75 1002.5
20260903224512 80 240 6.0 14.0 0.00 0.00 0.00 75 1002.4
20260903224334 80 250 7.0 14.0 0.00 0.00 0.00 75 1002.5
20260903224011 80 247 4.0 8.0 0.00 0.00 0.00 75 1002.4
20260903223823 80 215 4.0 10.0 0.00 0.00 0.00 74 1002.4
20260903223512 80 214 6.0 10.0 0.00 0.00 0.00 74 1002.4
20260903223313 80 205 6.0 10.0 0.00 0.00 0.00 74 1002.4
20260903223012 80 232 7.0 11.0 0.00 0.00 0.00 74 1002.4
20260903222803 80 209 6.0 11.0 0.00 0.00 0.00 74 1002.3
20260903222512 80 251 7.0 11.0 0.00 0.00 0.00 74 1002.3
20260903222012 80 199 7.0 12.0 0.00 0.00 0.00 75 1002.2
20260903221743 80 241 7.0 12.0 0.00 0.00 0.00 75 1002.2
20260903221512 80 238 7.0 12.0 0.00 0.00 0.00 75 1002.2
20260903221233 80 244 5.0 12.0 0.00 0.00 0.00 74 1002.2
20260903221012 80 233 8.0 12.0 0.00 0.00 0.00 74 1002.2
20260903220723 80 234 7.0 11.0 0.00 0.00 0.00 74 1002.2
20260903220513 80 287 6.0 10.0 0.00 0.00 0.00 74 1002.1
20260903220213 80 217 8.0 10.0 0.00 0.00 0.00 74 1002.2
20260903220011 80 243 6.0 10.0 0.00 0.00 0.00 74 1002.1
20260903215703 80 229 5.0 13.0 0.00 0.00 0.00 74 1002.2
20260903215511 80 241 6.0 13.0 0.00 0.00 0.00 74 1002.2
20260903215153 80 181 6.0 10.0 0.00 0.00 0.00 74 1002.2
20260903215012 80 215 6.0 10.0 0.00 0.00 0.00 74 1002.2
20260903214643 80 199 6.0 9.0 0.00 0.00 0.00 74 1002.1
20260903214511 80 259 6.0 9.0 0.00 0.00 0.00 74 1002.1
20260903214133 80 178 6.0 9.0 0.00 0.00 0.00 74 1002.1
20260903214011 80 203 6.0 9.0 0.00 0.00 0.00 74 1002.0
20260903213623 80 239 6.0 10.0 0.00 0.00 0.00 74 1002.0
20260903213512 80 224 4.0 10.0 0.00 0.00 0.00 74 1002.0
20260903213113 80 233 6.0 11.0 0.00 0.00 0.00 74 1002.0
20260903213012 80 214 4.0 11.0 0.00 0.00 0.00 74 1002.0
20260903212602 80 224 6.0 11.0 0.00 0.00 0.00 74 1001.9
20260903212053 80 217 6.0 12.0 0.00 0.00 0.00 74 1001.9
20260903212011 80 233 8.0 12.0 0.00 0.00 0.00 74 1001.9
20260903211543 80 187 6.0 11.0 0.00 0.00 0.00 74 1001.9
20260903211512 80 212 6.0 11.0 0.00 0.00 0.00 74 1001.9
20260903211032 80 235 7.0 13.0 0.00 0.00 0.00 74 1001.9
20260903211011 80 217 7.0 13.0 0.00 0.00 0.00 74 1001.8
20260903210523 80 170 8.0 12.0 0.00 0.00 0.00 74 1001.8
20260903210511 80 202 8.0 12.0 0.00 0.00 0.00 74 1001.8
20260903210014 80 225 7.0 12.0 0.00 0.00 0.00 74 1001.7
20260903210011 80 213 7.0 12.0 0.00 0.00 0.00 74 1001.8
20260903205511 80 230 8.0 12.0 0.00 0.00 0.00 74 1001.7
20260903205502 80 217 9.0 12.0 0.00 0.00 0.00 74 1001.7
20260903205011 80 184 7.0 13.0 0.00 0.00 0.00 73 1001.7
20260903204952 80 192 8.0 13.0 0.00 0.00 0.00 73 1001.8
20260903204511 80 216 8.0 13.0 0.00 0.00 0.00 73 1001.8
20260903204443 80 188 9.0 13.0 0.00 0.00 0.00 74 1001.7
20260903204012 80 239 9.0 15.0 0.00 0.00 0.00 73 1001.7
20260903203932 80 167 10.0 15.0 0.00 0.00 0.00 73 1001.7
20260903203511 80 144 10.0 15.0 0.00 0.00 0.00 73 1001.7
20260903203422 80 182 9.0 16.0 0.00 0.00 0.00 73 1001.7
20260903203011 80 225 10.0 16.0 0.00 0.00 0.00 73 1001.7
20260903202913 80 171 9.0 12.0 0.00 0.00 0.00 73 1001.7
20260903202511 80 209 8.0 14.0 0.00 0.00 0.00 74 1001.6
20260903202402 80 199 8.0 14.0 0.00 0.00 0.00 73 1001.6
20260903201852 80 226 9.0 16.0 0.00 0.00 0.00 73 1001.6
20260903201511 80 205 10.0 15.0 0.00 0.00 0.00 74 1001.6
20260903201342 80 225 11.0 15.0 0.00 0.00 0.00 74 1001.5
20260903201011 80 217 9.0 13.0 0.00 0.00 0.00 74 1001.5
20260903200832 80 196 10.0 14.0 0.00 0.00 0.00 74 1001.5
20260903200510 80 211 9.0 14.0 0.00 0.00 0.00 73 1001.4
20260903200322 80 188 9.0 16.0 0.00 0.00 0.00 73 1001.5
20260903200010 80 242 8.0 18.0 0.00 0.00 0.00 73 1001.5
20260903195511 80 205 10.0 15.0 0.00 0.00 0.00 73 1001.6
20260903195306 81 222 9.0 15.0 0.00 0.00 0.00 73 1001.6
20260903195011 81 199 8.0 15.0 0.00 0.00 0.00 73 1001.5
20260903194752 81 155 10.0 15.0 0.00 0.00 0.00 73 1001.6
20260903194510 81 171 10.0 15.0 0.00 0.00 0.00 73 1001.6
20260903194242 81 247 9.0 15.0 0.00 0.00 0.00 74 1001.5
20260903194010 81 204 10.0 15.0 0.00 0.00 0.00 73 1001.5
20260903193732 81 211 8.0 13.0 0.00 0.00 0.00 73 1001.4
20260903193511 81 228 9.0 13.0 0.00 0.00 0.00 74 1001.5
20260903193222 81 200 8.0 14.0 0.00 0.00 0.00 74 1001.5
20260903193011 81 235 9.0 15.0 0.00 0.00 0.00 74 1001.5
20260903192711 81 197 9.0 12.0 0.00 0.00 0.00 74 1001.4
20260903192510 81 251 7.0 13.0 0.00 0.00 0.00 74 1001.4
20260903192202 81 210 9.0 15.0 0.00 0.00 0.00 74 1001.4
20260903192010 81 182 8.0 15.0 0.00 0.00 0.00 74 1001.4
20260903191511 81 221 10.0 16.0 0.00 0.00 0.00 74 1001.4
20260903191142 81 187 11.0 17.0 0.00 0.00 0.00 74 1001.4
20260903191010 81 189 10.0 17.0 0.00 0.00 0.00 74 1001.3
20260903190632 81 186 9.0 15.0 0.00 0.00 0.00 74 1001.3
20260903190510 81 224 8.0 15.0 0.00 0.00 0.00 74 1001.3
20260903190010 81 188 9.0 18.0 0.00 0.00 0.00 73 1001.3
20260903185612 81 187 11.0 16.0 0.00 0.00 0.00 73 1001.3
20260903185510 81 151 10.0 16.0 0.00 0.00 0.00 73 1001.3
20260903185101 81 205 9.0 16.0 0.00 0.00 0.00 73 1001.3
20260903185010 81 215 9.0 17.0 0.00 0.00 0.00 73 1001.3
20260903184511 81 152 8.0 12.0 0.00 0.00 0.00 74 1001.2
20260903184041 81 192 7.0 13.0 0.00 0.00 0.00 74 1001.2
20260903184010 81 195 7.0 13.0 0.00 0.00 0.00 74 1001.2
20260903183531 81 167 8.0 16.0 0.00 0.00 0.00 74 1001.2
20260903183510 81 214 9.0 16.0 0.00 0.00 0.00 74 1001.2
20260903183022 81 226 10.0 20.0 0.00 0.00 0.00 74 1001.1
20260903183010 81 203 10.0 20.0 0.00 0.00 0.00 74 1001.1
20260903182512 81 206 8.0 14.0 0.00 0.00 0.00 74 1001.2
20260903182510 81 245 8.0 14.0 0.00 0.00 0.00 74 1001.2
20260903182010 81 195 9.0 17.0 0.00 0.00 0.00 74 1001.2
20260903182001 81 234 10.0 17.0 0.00 0.00 0.00 74 1001.2
20260903181510 81 197 9.0 16.0 0.00 0.00 0.00 73 1001.2
20260903181451 81 252 9.0 16.0 0.00 0.00 0.00 73 1001.2
20260903181010 81 163 10.0 15.0 0.00 0.00 0.00 73 1001.3
20260903180942 81 148 11.0 15.0 0.00 0.00 0.00 73 1001.3
20260903180510 81 171 8.0 16.0 0.00 0.00 0.00 74 1001.2
20260903180431 81 240 9.0 16.0 0.00 0.00 0.00 74 1001.2
20260903180010 81 233 6.0 14.0 0.00 0.00 0.00 73 1001.2
20260903175921 81 221 6.0 14.0 0.00 0.00 0.00 73 1001.3
20260903175510 81 224 9.0 16.0 0.00 0.00 0.00 73 1001.1
20260903175412 81 206 10.0 16.0 0.00 0.00 0.00 73 1001.2
20260903175009 81 185 11.0 16.0 0.00 0.00 0.00 73 1001.2
20260903174901 81 210 9.0 16.0 0.00 0.00 0.00 73 1001.2
20260903174509 82 193 8.0 17.0 0.00 0.00 0.00 74 1001.1
20260903174351 82 221 11.0 17.0 0.00 0.00 0.00 73 1001.1
20260903174010 82 139 7.0 11.0 0.00 0.00 0.00 73 1001.2
20260903173841 82 231 5.0 11.0 0.00 0.00 0.00 73 1001.2
20260903173510 82 193 4.0 9.0 0.00 0.00 0.00 73 1001.2
20260903173009 82 191 5.0 9.0 0.00 0.00 0.00 72 1001.2
20260903172821 82 157 4.0 6.0 0.00 0.00 0.00 72 1001.3
20260903172509 82 230 4.0 11.0 0.00 0.00 0.00 72 1001.2
20260903172311 82 192 5.0 11.0 0.00 0.00 0.00 72 1001.2
20260903172010 82 149 5.0 11.0 0.00 0.00 0.00 72 1001.2
20260903171801 82 134 3.0 11.0 0.00 0.00 0.00 72 1001.2
20260903171510 82 255 3.0 11.0 0.00 0.00 0.00 72 1001.1
20260903171250 82 208 3.0 11.0 0.00 0.00 0.00 71 1001.1
20260903171009 82 301 4.0 8.0 0.00 0.00 0.00 72 1001.1
20260903170741 82 228 3.0 16.0 0.00 0.00 0.00 71 1001.1
20260903170510 82 148 3.0 16.0 0.00 0.00 0.00 71 1001.1
20260903170231 82 252 6.0 11.0 0.00 0.00 0.00 71 1001.1
20260903170010 82 192 6.0 11.0 0.00 0.00 0.00 71 1001.1
20260903165720 82 95 5.0 8.0 0.00 0.00 0.00 71 1001.1
20260903165509 82 133 2.0 5.0 0.00 0.00 0.00 71 1001.1
20260903165211 82 117 1.0 6.0 0.00 0.00 0.00 71 1001.0
20260903165009 82 213 3.0 10.0 0.00 0.00 0.00 71 1001.1
20260903164701 82 138 6.0 13.0 0.00 0.00 0.00 72 1001.0
20260903164510 82 163 7.0 13.0 0.00 0.00 0.00 71 1001.0
20260903164150 82 135 6.0 13.0 0.00 0.00 0.00 71 1001.0
20260903164009 82 111 4.0 13.0 0.00 0.00 0.00 71 1001.0
20260903163640 82 136 6.0 10.0 0.00 0.00 0.00 72 1001.0
20260903163509 82 194 3.0 6.0 0.00 0.00 0.00 72 1001.1
20260903163131 82 169 1.0 8.0 0.00 0.00 0.00 72 1001.1
20260903163009 82 50 1.0 8.0 0.00 0.00 0.00 72 1001.1
20260903162620 82 99 4.0 11.0 0.00 0.00 0.00 72 1001.0
20260903162509 82 156 6.0 11.0 0.00 0.00 0.00 72 1001.1
20260903162110 82 204 7.0 11.0 0.00 0.00 0.00 73 1001.1
20260903162009 82 197 8.0 11.0 0.00 0.00 0.00 73 1001.1
20260903161601 82 207 6.0 12.0 0.00 0.00 0.00 73 1001.1
20260903161509 82 182 7.0 13.0 0.00 0.00 0.00 73 1001.1
20260903161009 82 163 9.0 17.0 0.00 0.00 0.00 73 1001.1
20260903160540 82 245 10.0 14.0 0.00 0.00 0.00 72 1001.1
20260903160509 82 194 10.0 14.0 0.00 0.00 0.00 72 1001.1
20260903160031 83 151 8.0 12.0 0.00 0.00 0.00 72 1001.2
20260903160009 83 222 8.0 12.0 0.00 0.00 0.00 72 1001.2
20260903155520 82 212 10.0 17.0 0.00 0.00 0.00 72 1001.2
20260903155509 82 245 10.0 17.0 0.00 0.00 0.00 72 1001.1
20260903155011 83 229 7.0 13.0 0.00 0.00 0.00 72 1001.1
20260903155009 83 194 7.0 13.0 0.00 0.00 0.00 72 1001.1
20260903154509 83 286 7.0 10.0 0.00 0.00 0.00 72 1001.1
20260903154500 83 193 7.0 10.0 0.00 0.00 0.00 72 1001.0
20260903154009 83 195 6.0 10.0 0.00 0.00 0.00 72 1001.1
20260903153950 83 179 6.0 10.0 0.00 0.00 0.00 72 1001.1
20260903153509 83 151 7.0 14.0 0.00 0.00 0.00 72 1001.1
20260903153440 83 99 9.0 14.0 0.00 0.00 0.00 72 1001.0
20260903153008 83 191 5.0 11.0 0.00 0.00 0.00 72 1001.0
20260903152930 83 183 5.0 13.0 0.00 0.00 0.00 72 1001.1
20260903152508 83 235 7.0 13.0 0.00 0.00 0.00 72 1001.1
20260903152420 83 226 6.0 12.0 0.00 0.00 0.00 72 1001.1
20260903152009 83 129 3.0 9.0 0.00 0.00 0.00 72 1001.1
20260903151910 83 180 4.0 9.0 0.00 0.00 0.00 72 1001.1
20260903151508 83 127 3.0 13.0 0.00 0.00 0.00 72 1001.1
20260903151400 83 30 2.0 13.0 0.00 0.00 0.00 72 1001.1
20260903151008 83 163 7.0 12.0 0.00 0.00 0.00 72 1001.2
20260903150850 83 251 4.0 10.0 0.00 0.00 0.00 72 1001.2
20260903150509 83 210 5.0 18.0 0.00 0.00 0.00 72 1001.2
20260903150339 83 112 8.0 18.0 0.00 0.00 0.00 72 1001.1
20260903150008 83 157 0.0 4.0 0.00 0.00 0.00 72 1001.2
20260903145830 83 76 1.0 5.0 0.00 0.00 0.00 72 1001.2
20260903145509 83 180 1.0 10.0 0.00 0.00 0.00 72 1001.1
20260903145320 83 224 5.0 10.0 0.00 0.00 0.00 72 1001.2
20260903145008 83 35 4.0 11.0 0.00 0.00 0.00 72 1001.2
20260903144809 83 177 8.0 16.0 0.00 0.00 0.00 72 1001.2
20260903144508 83 190 3.0 16.0 0.00 0.00 0.00 72 1001.2
20260903144300 83 234 6.0 11.0 0.00 0.00 0.00 72 1001.1
20260903144009 83 200 6.0 13.0 0.00 0.00 0.00 72 1001.1
20260903143750 83 156 5.0 13.0 0.00 0.00 0.00 72 1001.1
20260903143508 83 85 6.0 17.0 0.00 0.00 0.00 72 1001.1
20260903143239 83 61 7.0 17.0 0.00 0.00 0.00 72 1001.1
20260903143008 83 203 9.0 15.0 0.00 0.00 0.00 72 1001.1
20260903142730 83 203 7.0 14.0 0.00 0.00 0.00 73 1001.0
20260903142508 83 233 8.0 13.0 0.00 0.00 0.00 73 1000.9
20260903142008 83 160 9.0 18.0 0.00 0.00 0.00 72 1001.0
20260903141710 83 189 9.0 13.0 0.00 0.00 0.00 73 1001.0
20260903141508 83 152 5.0 13.0 0.00 0.00 0.00 73 1001.0
20260903141200 83 198 7.0 15.0 0.00 0.00 0.00 73 1000.9
20260903141009 83 216 6.0 15.0 0.00 0.00 0.00 73 1000.9
20260903140649 83 156 8.0 21.0 0.00 0.00 0.00 73 1000.9
20260903140508 83 95 4.0 21.0 0.00 0.00 0.00 73 1000.9
20260903140139 83 151 7.0 15.0 0.00 0.00 0.00 73 1001.0
20260903140008 83 167 6.0 12.0 0.00 0.00 0.00 73 1000.9
20260903135630 83 213 3.0 9.0 0.00 0.00 0.00 73 1000.9
20260903135507 83 161 2.0 9.0 0.00 0.00 0.00 73 1000.9
20260903135119 83 197 4.0 8.0 0.00 0.00 0.00 73 1000.9
20260903135008 83 148 2.0 10.0 0.00 0.00 0.00 73 1000.9
20260903134609 83 199 6.0 12.0 0.00 0.00 0.00 72 1000.9
20260903134508 83 190 6.0 12.0 0.00 0.00 0.00 72 1000.9
20260903134100 83 174 8.0 15.0 0.00 0.00 0.00 72 1000.9
20260903134008 83 176 7.0 17.0 0.00 0.00 0.00 72 1000.8
20260903133549 83 161 12.0 18.0 0.00 0.00 0.00 72 1000.8
20260903133508 83 160 14.0 18.0 0.00 0.00 0.00 72 1000.8
20260903133040 83 132 7.0 15.0 0.00 0.00 0.00 73 1000.7
20260903133008 83 145 6.0 15.0 0.00 0.00 0.00 73 1000.7
20260903132529 83 35 3.0 9.0 0.00 0.00 0.00 73 1000.7
20260903132507 83 106 4.0 9.0 0.00 0.00 0.00 73 1000.7
20260903132019 83 198 8.0 21.0 0.00 0.00 0.00 73 1000.6
20260903132008 83 182 10.0 21.0 0.00 0.00 0.00 73 1000.6
20260903131510 82 165 8.0 16.0 0.00 0.00 0.00 74 1000.6
20260903131508 82 162 8.0 16.0 0.00 0.00 0.00 74 1000.6
20260903131007 82 187 7.0 10.0 0.00 0.00 0.00 75 1000.6
20260903130959 82 237 7.0 11.0 0.00 0.00 0.00 75 1000.6
20260903130508 82 217 8.0 13.0 0.00 0.00 0.00 75 1000.6
20260903130007 82 218 5.0 16.0 0.00 0.00 0.00 75 1000.5
20260903125939 82 196 6.0 16.0 0.00 0.00 0.00 75 1000.5
20260903125507 82 227 8.0 16.0 0.00 0.00 0.00 75 1000.4
20260903125429 82 164 10.0 16.0 0.00 0.00 0.00 74 1000.4
20260903125008 83 180 7.0 12.0 0.00 0.00 0.00 74 1000.3
20260903124919 83 159 8.0 12.0 0.00 0.00 0.00 74 1000.3
20260903124507 83 160 5.0 12.0 0.00 0.00 0.00 74 1000.2
20260903124409 83 239 6.0 14.0 0.00 0.00 0.00 74 1000.2
20260903124008 83 151 9.0 16.0 0.00 0.00 0.00 74 1000.2
20260903123859 83 245 7.0 16.0 0.00 0.00 0.00 74 1000.2
20260903123507 83 136 6.0 18.0 0.00 0.00 0.00 73 1000.2
20260903123348 83 229 10.0 19.0 0.00 0.00 0.00 73 1000.2
20260903123007 83 228 12.0 19.0 0.00 0.00 0.00 73 1000.2
20260903122839 83 155 12.0 19.0 0.00 0.00 0.00 73 1000.2
20260903122507 83 138 7.0 18.0 0.00 0.00 0.00 73 1000.1
20260903122328 83 9 9.0 18.0 0.00 0.00 0.00 73 1000.1
20260903122007 83 169 6.0 14.0 0.00 0.00 0.00 73 1000.1
20260903121819 83 169 4.0 14.0 0.00 0.00 0.00 73 1000.1
20260903121507 83 166 2.0 9.0 0.00 0.00 0.00 73 1000.1
20260903121308 83 178 2.0 15.0 0.00 0.00 0.00 73 1000.1
20260903121007 83 154 7.0 15.0 0.00 0.00 0.00 73 1000.1
20260903120759 83 146 9.0 19.0 0.00 0.00 0.00 73 1000.1
20260903120506 83 208 10.0 19.0 0.00 0.00 0.00 73 1000.0
20260903120248 83 251 10.0 18.0 0.00 0.00 0.00 73 1000.1
20260903120007 83 218 5.0 16.0 0.00 0.00 0.00 73 1000.1
20260903115738 83 169 5.0 9.0 0.00 0.00 0.00 73 1000.0
20260903115507 83 156 4.0 13.0 0.00 0.00 0.00 73 1000.1
20260903115228 83 129 6.0 17.0 0.00 0.00 0.00 73 1000.0
20260903115007 83 145 12.0 17.0 0.00 0.00 0.00 73 1000.0
20260903114718 83 68 7.0 17.0 0.00 0.00 0.00 73 1000.0
20260903114507 83 335 8.0 17.0 0.00 0.00 0.00 73 999.9
20260903114209 83 172 10.0 17.0 0.00 0.00 0.00 72 999.9
20260903114006 84 161 9.0 17.0 0.00 0.00 0.00 72 999.9
20260903113658 84 147 4.0 23.0 0.00 0.00 0.00 72 999.9
20260903113507 84 155 4.0 23.0 0.00 0.00 0.00 72 999.9
20260903113148 84 158 6.0 15.0 0.00 0.00 0.00 72 999.8
20260903113007 84 176 6.0 11.0 0.00 0.00 0.00 72 999.8
20260903112637 84 137 4.0 12.0 0.00 0.00 0.00 72 999.8
20260903112506 84 53 6.0 12.0 0.00 0.00 0.00 72 999.8
20260903112128 84 183 5.0 20.0 0.00 0.00 0.00 72 999.8
20260903112007 84 138 2.0 20.0 0.00 0.00 0.00 72 999.8
20260903111618 84 161 9.0 19.0 0.00 0.00 0.00 72 999.8
20260903111507 84 135 9.0 19.0 0.00 0.00 0.00 72 999.7
20260903111108 84 135 11.0 16.0 0.00 0.00 0.00 72 999.6
20260903111006 84 211 7.0 11.0 0.00 0.00 0.00 72 999.6
20260903110558 84 345 5.0 12.0 0.00 0.00 0.00 72 999.6
20260903110507 84 63 7.0 12.0 0.00 0.00 0.00 72 999.7
20260903110048 84 52 6.0 13.0 0.00 0.00 0.00 72 999.6
20260903110007 84 59 9.0 13.0 0.00 0.00 0.00 72 999.6
20260903105537 84 152 2.0 18.0 0.00 0.00 0.00 72 999.6
20260903105506 84 186 4.0 18.0 0.00 0.00 0.00 72 999.5
20260903105028 84 55 5.0 17.0 0.00 0.00 0.00 71 999.5
20260903105006 84 143 4.0 17.0 0.00 0.00 0.00 71 999.5
20260903104518 84 125 11.0 21.0 0.00 0.00 0.00 71 999.6
20260903104507 84 163 12.0 21.0 0.00 0.00 0.00 71 999.6
20260903104006 84 160 5.0 19.0 0.00 0.00 0.00 71 999.4
20260903103506 84 247 6.0 12.0 0.00 0.00 0.00 71 999.4
20260903103006 84 125 4.0 18.0 0.00 0.00 0.00 71 999.4
20260903102506 84 154 10.0 20.0 0.00 0.00 0.00 71 999.3
20260903102438 84 152 12.0 20.0 0.00 0.00 0.00 71 999.3
20260903102007 84 163 11.0 26.0 0.00 0.00 0.00 71 999.3
20260903101928 84 166 13.0 26.0 0.00 0.00 0.00 71 999.2
20260903101506 85 146 12.0 19.0 0.00 0.00 0.00 70 999.3
20260903101417 85 212 5.0 19.0 0.00 0.00 0.00 70 999.2
20260903101006 85 119 6.0 11.0 0.00 0.00 0.00 70 999.2
20260903100908 85 128 5.0 17.0 0.00 0.00 0.00 70 999.2
20260903100505 85 144 9.0 21.0 0.00 0.00 0.00 70 999.2
20260903100357 85 161 10.0 21.0 0.00 0.00 0.00 70 999.1
20260903100006 85 124 2.0 17.0 0.00 0.00 0.00 70 999.1
20260903095506 85 31 7.0 15.0 0.00 0.00 0.00 69 999.0
20260903095338 85 112 6.0 15.0 0.00 0.00 0.00 69 999.0
20260903095006 86 55 3.0 12.0 0.00 0.00 0.00 69 999.0
20260903094827 86 247 7.0 12.0 0.00 0.00 0.00 69 998.9
20260903094506 86 132 3.0 22.0 0.00 0.00 0.00 69 999.0
20260903094317 86 84 3.0 22.0 0.00 0.00 0.00 69 998.9
20260903094006 86 211 5.0 16.0 0.00 0.00 0.00 69 998.9
20260903093808 86 152 9.0 16.0 0.00 0.00 0.00 69 998.9
20260903093505 86 195 9.0 15.0 0.00 0.00 0.00 69 998.8
20260903093257 86 183 3.0 14.0 0.00 0.00 0.00 69 998.9
20260903093006 86 95 6.0 14.0 0.00 0.00 0.00 69 998.9
20260903092748 86 60 3.0 9.0 0.00 0.00 0.00 69 998.8
20260903092504 86 63 5.0 20.0 0.00 0.00 0.00 69 998.8
20260903092237 86 43 3.0 20.0 0.00 0.00 0.00 69 998.8
20260903092006 86 196 9.0 17.0 0.00 0.00 0.00 69 998.7
20260903091727 86 183 6.0 16.0 0.00 0.00 0.00 69 998.7
20260903091506 86 136 10.0 16.0 0.00 0.00 0.00 68 998.7
20260903091217 86 170 6.0 15.0 0.00 0.00 0.00 69 998.7
20260903091006 86 171 7.0 15.0 0.00 0.00 0.00 69 998.6
20260903090707 86 164 10.0 17.0 0.00 0.00 0.00 69 998.6
20260903090506 86 133 7.0 23.0 0.00 0.00 0.00 68 998.6
20260903090157 86 117 7.0 23.0 0.00 0.00 0.00 68 998.6
20260903090005 86 128 4.0 18.0 0.00 0.00 0.00 68 998.6
20260903085647 86 16 4.0 9.0 0.00 0.00 0.00 68 998.6
20260903085506 86 286 5.0 9.0 0.00 0.00 0.00 68 998.5
20260903085136 86 187 1.0 12.0 0.00 0.00 0.00 68 998.5
20260903085005 86 316 5.0 13.0 0.00 0.00 0.00 68 998.5
20260903084627 86 133 8.0 20.0 0.00 0.00 0.00 68 998.5
20260903084506 86 132 9.0 20.0 0.00 0.00 0.00 68 998.5
20260903084116 87 148 10.0 22.0 0.00 0.00 0.00 68 998.4
20260903084005 87 112 9.0 22.0 0.00 0.00 0.00 68 998.4
20260903083607 87 167 7.0 10.0 0.00 0.00 0.00 68 998.3
20260903083506 87 53 2.0 9.0 0.00 0.00 0.00 68 998.4
20260903083056 87 138 4.0 14.0 0.00 0.00 0.00 68 998.3
20260903083005 87 79 8.0 15.0 0.00 0.00 0.00 68 998.3
20260903082547 87 22 8.0 18.0 0.00 0.00 0.00 68 998.3
20260903082505 87 107 4.0 18.0 0.00 0.00 0.00 68 998.3
20260903082037 87 180 7.0 17.0 0.00 0.00 0.00 68 998.3
20260903082006 87 173 8.0 17.0 0.00 0.00 0.00 68 998.3
20260903081526 86 140 7.0 16.0 0.00 0.00 0.00 69 998.3
20260903081505 86 160 9.0 16.0 0.00 0.00 0.00 69 998.3
20260903081017 87 200 10.0 14.0 0.00 0.00 0.00 69 998.2
20260903081005 87 206 9.0 14.0 0.00 0.00 0.00 69 998.2
20260903080507 87 204 4.0 12.0 0.00 0.00 0.00 68 998.2
20260903080505 87 176 4.0 12.0 0.00 0.00 0.00 68 998.2
20260903080005 87 176 4.0 12.0 0.00 0.00 0.00 68 998.1
20260903075956 87 103 5.0 12.0 0.00 0.00 0.00 68 998.1
20260903075506 87 147 6.0 16.0 0.00 0.00 0.00 69 998.1
20260903075447 87 169 7.0 16.0 0.00 0.00 0.00 69 998.1
20260903075005 86 67 6.0 16.0 0.00 0.00 0.00 69 998.2
20260903074936 86 117 9.0 17.0 0.00 0.00 0.00 69 998.2
20260903074505 87 234 10.0 17.0 0.00 0.00 0.00 69 998.2
20260903074427 87 160 8.0 19.0 0.00 0.00 0.00 69 998.2
20260903074005 88 114 11.0 22.0 0.00 0.00 0.00 68 998.2
20260903073916 88 151 7.0 22.0 0.00 0.00 0.00 68 998.1
20260903073505 87 176 7.0 17.0 0.00 0.00 0.00 68 998.1
20260903073406 87 205 7.0 17.0 0.00 0.00 0.00 68 998.1
20260903073005 87 182 8.0 15.0 0.00 0.00 0.00 68 998.2
20260903072856 87 163 4.0 21.0 0.00 0.00 0.00 69 998.2
20260903072505 86 277 12.0 21.0 0.00 0.00 0.00 69 998.2
20260903072346 86 212 6.0 15.0 0.00 0.00 0.00 70 998.3
20260903072005 86 153 9.0 20.0 0.00 0.00 0.00 70 998.3
20260903071836 86 216 12.0 20.0 0.00 0.00 0.00 70 998.2
20260903071505 86 215 8.0 18.0 0.00 0.00 0.00 71 998.3
20260903071326 86 234 9.0 18.0 0.00 0.00 0.00 71 998.3
20260903071005 86 201 10.0 20.0 0.00 0.00 0.00 70 998.3
20260903070816 85 205 10.0 26.0 0.00 0.00 0.00 71 998.3
20260903070504 85 148 15.0 26.0 0.00 0.00 0.00 70 998.2
20260903070306 86 147 13.0 19.0 0.00 0.00 0.00 70 998.2
20260903070005 86 237 11.0 27.0 0.00 0.00 0.00 70 998.2
20260903065756 85 206 12.0 27.0 0.00 0.00 0.00 70 998.2
20260903065505 85 187 14.0 20.0 0.00 0.00 0.00 70 998.1
20260903065004 85 219 13.0 24.0 0.00 0.00 0.00 70 998.2
20260903064736 85 211 10.0 25.0 0.00 0.00 0.00 71 998.2
20260903064505 85 142 16.0 26.0 0.00 0.00 0.00 71 998.3
20260903064226 85 175 18.0 24.0 0.00 0.00 0.00 70 998.3
20260903064005 85 172 17.0 25.0 0.00 0.00 0.00 70 998.3
20260903063715 85 169 17.0 29.0 0.00 0.00 0.00 70 998.3
20260903063504 85 202 21.0 32.0 0.00 0.00 0.00 70 998.4
20260903063206 85 183 20.0 33.0 0.00 0.00 0.00 70 998.5
20260903063004 85 161 19.0 33.0 0.00 0.00 0.00 70 998.3
20260903062656 85 190 13.0 28.0 0.00 0.00 0.00 70 998.4
20260903062145 84 166 19.0 30.0 0.00 0.00 0.00 70 998.5
20260903062004 84 182 23.0 30.0 0.00 0.00 0.00 70 998.5
20260903061636 84 187 21.0 29.0 0.00 0.00 0.00 70 998.5
20260903061505 84 184 18.0 29.0 0.00 0.00 0.00 71 998.6
20260903061125 84 170 17.0 23.0 0.00 0.00 0.00 71 998.6
20260903061004 85 162 15.0 23.0 0.00 0.00 0.00 71 998.7
20260903060616 85 163 14.0 21.0 0.00 0.00 0.00 70 998.7
20260903060504 85 162 13.0 21.0 0.00 0.00 0.00 70 998.8
20260903060105 85 210 11.0 21.0 0.00 0.00 0.00 70 998.7
20260903060004 85 253 10.0 21.0 0.00 0.00 0.00 71 998.7
20260903055555 85 192 13.0 24.0 0.00 0.00 0.00 70 998.7
20260903055504 85 180 10.0 24.0 0.00 0.00 0.00 70 998.8
20260903055045 85 255 11.0 24.0 0.00 0.00 0.00 71 998.7
20260903055004 85 239 14.0 24.0 0.00 0.00 0.00 71 998.7
20260903054535 85 223 8.0 23.0 0.00 0.00 0.00 72 998.8
20260903054504 85 253 10.0 23.0 0.00 0.00 0.00 72 998.8
20260903054026 85 197 13.0 20.0 0.00 0.00 0.00 70 998.8
20260903054004 85 215 11.0 20.0 0.00 0.00 0.00 70 998.7
20260903053504 85 214 9.0 24.0 0.00 0.00 0.00 71 998.9
20260903053006 85 226 10.0 19.0 0.00 0.00 0.00 70 998.8
20260903053004 85 228 10.0 19.0 0.00 0.00 0.00 70 998.8
20260903052504 85 215 8.0 16.0 0.00 0.00 0.00 71 998.9
20260903052455 85 242 8.0 16.0 0.00 0.00 0.00 71 999.0
20260903052004 85 220 9.0 18.0 0.00 0.00 0.00 71 999.0
20260903051945 85 188 8.0 18.0 0.00 0.00 0.00 71 999.0
20260903051503 85 158 10.0 18.0 0.00 0.00 0.00 70 999.0
20260903051435 85 183 11.0 18.0 0.00 0.00 0.00 70 999.0
20260903051004 86 216 9.0 17.0 0.00 0.00 0.00 68 999.0
20260903050925 86 150 7.0 17.0 0.00 0.00 0.00 69 999.0
20260903050504 86 157 5.0 17.0 0.00 0.00 0.00 69 999.1
20260903050415 86 117 11.0 19.0 0.00 0.00 0.00 68 999.0
20260903050004 86 203 13.0 20.0 0.00 0.00 0.00 68 999.0
20260903045905 86 208 12.0 21.0 0.00 0.00 0.00 69 999.0
20260903045504 86 244 15.0 23.0 0.00 0.00 0.00 69 999.0
20260903045003 86 154 13.0 27.0 0.00 0.00 0.00 69 999.0
20260903044845 86 182 10.0 22.0 0.00 0.00 0.00 69 998.9
20260903044504 85 136 10.0 19.0 0.00 0.00 0.00 69 999.1
20260903044334 85 186 11.0 18.0 0.00 0.00 0.00 70 999.0
20260903044003 85 146 12.0 26.0 0.00 0.00 0.00 70 999.0
20260903043825 85 167 9.0 26.0 0.00 0.00 0.00 70 999.1
20260903043504 85 135 10.0 20.0 0.00 0.00 0.00 70 999.1
20260903043314 85 244 13.0 20.0 0.00 0.00 0.00 70 999.1
20260903043003 85 206 12.0 19.0 0.00 0.00 0.00 70 999.1
20260903042805 85 204 10.0 19.0 0.00 0.00 0.00 70 999.1
20260903042504 85 129 14.0 21.0 0.00 0.00 0.00 70 999.1
20260903042254 85 192 12.0 23.0 0.00 0.00 0.00 70 999.0
20260903042003 85 160 13.0 23.0 0.00 0.00 0.00 70 999.0
20260903041745 85 229 17.0 23.0 0.00 0.00 0.00 70 999.1
20260903041504 85 233 14.0 26.0 0.00 0.00 0.00 70 999.0
20260903041234 85 232 14.0 28.0 0.00 0.00 0.00 70 999.1
20260903041003 84 200 15.0 28.0 0.00 0.00 0.00 70 999.1
20260903040725 85 230 16.0 27.0 0.00 0.00 0.00 70 999.1
20260903040504 85 154 16.0 29.0 0.00 0.00 0.00 70 999.1
20260903040214 85 165 17.0 26.0 0.00 0.00 0.00 70 999.1
20260903040003 85 160 14.0 25.0 0.00 0.00 0.00 70 999.1
20260903035705 85 229 19.0 25.0 0.00 0.00 0.00 70 999.1
20260903035503 85 180 10.0 22.0 0.00 0.00 0.00 70 999.2
20260903035154 85 237 14.0 25.0 0.00 0.00 0.00 70 999.2
20260903035003 85 178 16.0 26.0 0.00 0.00 0.00 70 999.3
20260903034644 85 171 15.0 28.0 0.00 0.00 0.00 70 999.2
20260903034503 85 187 18.0 28.0 0.00 0.00 0.00 69 999.3
20260903034135 85 201 18.0 25.0 0.00 0.00 0.00 69 999.3
20260903034002 85 156 12.0 26.0 0.00 0.00 0.00 70 999.5
20260903033624 85 153 18.0 27.0 0.00 0.00 0.00 69 999.4
20260903033503 85 194 18.0 27.0 0.00 0.00 0.00 69 999.4
20260903033114 85 226 13.0 28.0 0.00 0.00 0.00 70 999.6
20260903033003 85 117 16.0 28.0 0.00 0.00 0.00 69 999.5
20260903032604 85 245 14.0 21.0 0.00 0.00 0.00 70 999.5
20260903032502 85 228 12.0 21.0 0.00 0.00 0.00 70 999.5
20260903032054 85 190 10.0 28.0 0.00 0.00 0.00 70 999.5
20260903032003 85 229 13.0 28.0 0.00 0.00 0.00 70 999.6
20260903031545 85 182 11.0 21.0 0.00 0.00 0.00 70 999.6
20260903031503 85 165 11.0 20.0 0.00 0.00 0.00 70 999.6
20260903031034 84 208 16.0 26.0 0.00 0.00 0.00 70 999.6
20260903031003 84 214 17.0 26.0 0.00 0.00 0.00 70 999.5
20260903030524 84 159 13.0 19.0 0.00 0.00 0.00 70 999.6
20260903030503 84 223 13.0 20.0 0.00 0.00 0.00 70 999.5
20260903030014 84 206 14.0 22.0 0.00 0.00 0.00 70 999.7
20260903030002 84 218 13.0 22.0 0.00 0.00 0.00 71 999.6
20260903025505 83 156 11.0 18.0 0.00 0.00 0.00 71 999.6
20260903025503 83 168 11.0 18.0 0.00 0.00 0.00 71 999.6
20260903024954 83 198 11.0 21.0 0.00 0.00 0.00 71 999.6
20260903024503 83 167 12.0 21.0 0.00 0.00 0.00 71 999.7
20260903024444 83 188 11.0 21.0 0.00 0.00 0.00 71 999.6
20260903024003 83 211 12.0 22.0 0.00 0.00 0.00 71 999.6
20260903023935 83 174 15.0 22.0 0.00 0.00 0.00 71 999.6
20260903023502 83 220 15.0 21.0 0.00 0.00 0.00 71 999.5
20260903023424 83 222 14.0 21.0 0.00 0.00 0.00 71 999.5
20260903023003 83 223 13.0 20.0 0.00 0.00 0.00 71 999.5
20260903022914 83 286 12.0 20.0 0.00 0.00 0.00 71 999.6
20260903022502 83 197 13.0 22.0 0.00 0.00 0.00 71 999.6
20260903022404 83 253 14.0 22.0 0.00 0.00 0.00 71 999.5
20260903022003 83 252 12.0 20.0 0.00 0.00 0.00 71 999.6
20260903021502 82 191 14.0 21.0 0.00 0.00 0.00 71 999.5
20260903021343 82 210 14.0 21.0 0.00 0.00 0.00 71 999.5
20260903021003 82 218 12.0 23.0 0.00 0.00 0.00 72 999.6
20260903020834 82 229 15.0 23.0 0.00 0.00 0.00 71 999.6
20260903020502 83 221 13.0 20.0 0.00 0.00 0.00 71 999.6
20260903020323 83 176 12.0 21.0 0.00 0.00 0.00 71 999.5
20260903020002 83 236 15.0 24.0 0.00 0.00 0.00 71 999.6
20260903015814 83 252 14.0 24.0 0.00 0.00 0.00 71 999.6
20260903015501 82 233 13.0 24.0 0.00 0.00 0.00 72 999.6
20260903015305 82 181 13.0 24.0 0.00 0.00 0.00 72 999.6
20260903015002 82 248 12.0 22.0 0.00 0.00 0.00 72 999.6
20260903014754 82 250 12.0 22.0 0.00 0.00 0.00 72 999.6
20260903014503 82 226 14.0 21.0 0.00 0.00 0.00 72 999.6
20260903014243 82 200 10.0 23.0 0.00 0.00 0.00 72 999.6
20260903014002 82 219 15.0 23.0 0.00 0.00 0.00 72 999.5
20260903013734 82 188 13.0 24.0 0.00 0.00 0.00 72 999.6
20260903013503 82 217 12.0 24.0 0.00 0.00 0.00 72 999.7
20260903013223 82 175 12.0 21.0 0.00 0.00 0.00 72 999.6
20260903013002 82 201 13.0 21.0 0.00 0.00 0.00 72 999.6
20260903012714 82 153 14.0 20.0 0.00 0.00 0.00 72 999.6
20260903012502 82 223 11.0 19.0 0.00 0.00 0.00 72 999.6
20260903012203 82 168 12.0 24.0 0.00 0.00 0.00 72 999.6
20260903012002 82 205 12.0 26.0 0.00 0.00 0.00 72 999.6
20260903011653 82 135 14.0 26.0 0.00 0.00 0.00 72 999.7
20260903011502 82 260 11.0 19.0 0.00 0.00 0.00 72 999.6